sat.trackr.live / text

‹ back to catalog

STARLINK-2096

NORAD 47376 · 2021-005AD

PAYLOAD ACTIVE UNKNOWN

§ Identity

Operator
Country
US
Launch date
2021-01-20
Launch site
AFETR
Launch vehicle
Mass (kg)
RCS (m²)

Purposes: comms

External: N2YO · Heavens-Above · Gunter

§ Orbital elements

Epoch: 2026-05-25T01:21:12.958272Z

Period
94.01 min
Inclination
53.1607°
Eccentricity
0.0001118
Mean motion
15.31724992 rev/d
Perigee alt
469.9 km
Apogee alt
471.4 km
Semi-major
6,848.8 km
B*
3.7088e-4
RAAN
67.3487°
Arg perigee
94.2021°
Mean anomaly
265.9108°
Rev number
29,472

§ Raw data

STARLINK-20961 47376U 21005AD  26145.05639998  .00011170  00000+0  37088-3 0  99902 47376  53.1607  67.3487 0001118  94.2021 265.9108 15.31724992294723

JSON: /api/v1/satellites/47376 · /tle

For live sub-satellite position, see the globe view (requires WebGL).

§ Visibility from observer

Set your observer location to see the next 7 days of passes ≥ 10°. The values pass through the URL so the page stays shareable.

No JS? Fill the form by hand. The geolocation button needs JavaScript.